Weather Roundup
Issued by NWS Chicago, IL

Home | Current Version | Previous Version | Text Only | Print | Product List | Glossary Off
Versions: 1 2 3 4 5 6 7 8 9 10 11 12 13 14 15 16 17 18 19 20 21 22 23 24 25 26 27 28 29 30 31 32 33 34 35 36 37 38 39 40 41 42 43 44 45 46 47 48 49 50

000
NZUS59 KLOT 291306
HRRLOT

CHICAGO AREA WEATHER ROUNDUP
NATIONAL WEATHER SERVICE CHICAGO/ROMEOVILLE IL
700 AM CST THU JAN 29 2015

NOTE: "FAIR" INDICATES FEW OR NO CLOUDS BELOW 12,000 FEET WITH NO
SIGNIFICANT WEATHER AND/OR OBSTRUCTIONS TO VISIBILITY.

* THESE STATIONS ARE NOT UNDER NWS QUALITY CONTROL. THEY ALSO MAY NOT
  REPORT WEATHER SUCH AS PRECIPITATION OR FOG.

ILZ005-006-012>014-019>023-291400-
NORTHEAST ILLINOIS

CITY           SKY/WX    TMP DP  RH WIND       PRES   REMARKS
OHARE          CLOUDY    35  28  75 NW10      29.72S WCI  27
MIDWAY         CLOUDY    37  30  75 NW7       29.72R
AURORA         CLOUDY    33  28  81 NW14      29.76R WCI  23
LANSING*       CLOUDY    34  30  85 CALM      29.71R
JOLIET*        CLOUDY    33  30  88 W3        29.75R
WAUKEGAN       CLOUDY    33  27  78 NW6       29.75R WCI  28
DUPAGE AIRPORT LGT RAIN  34  29  82 NW13      29.74R WCI  25
WHEELING       CLOUDY    35  27  72 NW7       29.76R WCI  29
KANKAKEE*      CLOUDY    35  32  88 W9        29.72R WCI  28
MORRIS*        CLOUDY    32  31  95 NW9       29.74R WCI  25
LEWIS AIRPORT* CLOUDY    32  29  90 NW7       29.74R WCI  26
NORTHERLY IS     N/A     37  29  73 W10         N/A
$$

WIZ051-052-058>065-066-070>072-291400-
SOUTHEAST WISCONSIN

CITY           SKY/WX    TMP DP  RH WIND       PRES   REMARKS
MILWAUKEE      FLURRIES  33  25  72 NW9       29.76R WCI  25
KENOSHA*       CLOUDY    33  27  78 NW8       29.76R WCI  26
RACINE*        CLOUDY    33  26  75 NW8       29.77R WCI  26
BURLINGTON     CLOUDY    31  26  80 NW12      29.78R WCI  22
WAUKESHA       CLOUDY    30  25  80 NW16      29.78R WCI  19
WEST BEND      FLURRIES  30  27  86 NW12      29.78R WCI  21
$$

INZ001>003-010>013-019-020-291400-
NORTHWEST INDIANA

CITY           SKY/WX    TMP DP  RH WIND       PRES   REMARKS
GARY*          CLOUDY    37  27  65 W6        29.72R
MICHIGAN CITY* NOT AVBL
RENSSELAER*    NOT AVBL
VALPARAISO     CLOUDY    33  26  75 CALM      29.71R
$$

LMZ740>746-291400-
SOUTHERN LAKE MICHIGAN

STATION/POSITION TIME  SKY/WX   TEMP WIND        PRES    VSBY
                                AIR  DIR/SP/G
                 (UTC)          (F)  (DEG/KT/KT) (MB)    (MI)
HARRISON CRIB    1300            37  290/  9/ 11   N/A
BURNHAM HARBOR   1300            37  280/  9/ 10   N/A
CALUMET HARBOR   1300            37  260/  5/  6   N/A
BURNS HARBOR     NOT AVBL
MICHIGAN CITY    1300            37  150/ 12/ 15   N/A
$$

ABBREVIATIONS USED IN REMARKS
   TC - TEMPERATURE IN CELSIUS
  WCI - WIND CHILL INDEX
   HX - HEAT INDEX
  VSB - VISIBILITY
$$


USA.gov is the U.S. government's official web portal to all federal, state and local government web resources and services.